Location: Newark
(50.0306°N, 2.3272°E)
Time: 05:31:05
(UTC+00:00)

A-11 Canister half - Pass Details

Date: 11 December 2019
Orbit: 1525 x 1684 km, 47.3° (Epoch: 26 January)

Event Time Altitude Azimuth Distance (km) Brightness Sun altitude
Rises 06:41:30 0° 240° (WSW) 4,917 11.3 -8.7°
Reaches altitude 10° 06:44:41 10° 238° (WSW) 3,938 10.8 -8.3°
Maximum altitude 06:54:39 65° 160° (SSE) 1,822 9.7 -6.8°
Drops below altitude 10° 07:04:35 10° 82° (E) 3,919 12.0 -5.4°
Sets 07:07:44 0° 79° (E) 4,892 12.5 -5.0°
